Location: Unspecified
(0.0000°N, 0.0000°E)
Time: 01:06:33
(UTC+00:00)

CZ-3C DEB - Pass Details

Date: 14 February 2026
Orbit: 506 x 35764 km, 20.4° (Epoch: 1 August)

Event Time Altitude Azimuth Distance (km) Brightness Sun altitude
Rises 19:03:14 0° 250° (WSW) 10,356 ? -12.0°
Reaches altitude 10° 19:08:25 10° 251° (WSW) 10,782 ? -13.2°
Maximum altitude 20:46:48 57° 271° (W) 25,732 ? -37.1°
Enters shadow 03:22:00 16° 292° (WNW) 25,111 ? -41.7°
Exits shadow 04:26:50 25° 300° (WNW) 11,175 ? -26.1°
Drops below altitude 10° 04:59:09 10° 85° (E) 3,020 ? -18.3°
Sets 05:00:42 0° 91° (E) 3,554 ? -17.9°
